Location: Unspecified
(0.0000°N, 0.0000°E)
Time: 05:51:37
(UTC+00:00)

deb West Ford - Pass Details

Date: 18 May 2026
Orbit: 2163 x 4941 km, 86.7° (Epoch: 8 June)

Event Time Altitude Azimuth Distance (km) Brightness Sun altitude
Exits shadow 03:16:46 21° 313° (NW) 3,964 ? -37.2°
Drops below altitude 10° 03:20:16 10° 327° (NNW) 4,723 ? -36.4°
Sets 03:23:52 0° 337° (NNW) 5,680 ? -35.6°
